period_start,C,m1,H,J0,J1,J2,J3,J4,J5,JA,JB,JC,JD,JJ,JK,JN,#
2017-07-17 00:02:21,0.01,0.71,0.00,23.38,27.52,30.46,13.84,44.67,1015.64,2031.14,3263.03,2880.01,3299.81,599.90,594.66,54.78,0000 0000 0000 0000 000000
2017-07-17 00:07:22,-0.00,0.71,0.00,23.40,27.55,30.48,13.91,44.56,1015.64,2031.09,3263.01,2880.00,3299.35,600.08,594.61,54.83,0000 0000 0000 0000 000000
2017-07-17 00:12:23,0.00,0.71,0.00,23.42,27.55,30.50,13.87,44.66,1015.64,2031.01,3262.88,2879.85,3298.89,600.14,594.79,54.88,0000 0000 0000 0000 000000
2017-07-17 00:17:25,0.16,0.72,0.00,23.45,27.57,30.52,13.85,44.60,1015.64,2031.00,3261.17,2877.69,3296.55,599.81,594.28,54.93,0000 0000 0000 0000 000000
2017-07-17 00:22:26,0.01,0.72,0.00,23.48,27.59,30.54,13.89,44.62,1015.64,2031.00,3260.47,2877.03,3295.99,599.96,594.53,54.98,0000 0000 0000 0000 000000
2017-07-17 00:27:27,0.01,0.72,0.00,23.52,27.60,30.54,13.90,44.59,1015.64,2031.00,3260.04,2876.99,3295.50,599.83,594.29,55.03,0000 0000 0000 0000 000000
2017-07-17 00:32:28,0.04,0.72,0.00,23.55,27.62,30.56,13.88,44.70,1015.64,2030.99,3259.68,2876.42,3294.72,600.24,594.51,55.08,0000 0000 0000 0000 000000
2017-07-17 00:37:30,0.02,0.72,0.00,23.58,27.64,30.58,13.89,44.59,1015.64,2030.98,3258.99,2875.78,3294.01,600.07,594.44,55.13,0000 0000 0000 0000 000000
2017-07-17 00:42:31,0.04,0.72,0.00,23.61,27.66,30.59,13.86,44.70,1015.64,2030.95,3258.27,2875.05,3293.32,600.02,594.32,55.18,0000 0000 0000 0000 000000
2017-07-17 00:47:32,-0.00,0.72,0.00,23.64,27.68,30.61,13.92,44.59,1015.64,2030.85,3258.00,2874.91,3292.99,600.04,594.27,55.23,0000 0000 0000 0000 000000
2017-07-17 00:52:34,-0.00,0.72,0.00,23.66,27.71,30.65,13.88,44.56,1015.64,2030.42,3257.84,2874.16,3292.44,600.01,594.18,55.28,0000 0000 0000 0000 000000
2017-07-17 00:57:35,-0.01,0.72,0.00,23.70,27.73,30.66,13.82,44.61,1015.64,2030.10,3257.13,2874.00,3292.01,599.92,593.98,55.33,0000 0000 0000 0000 000000
2017-07-17 01:02:37,-0.00,0.72,0.00,23.72,27.76,30.68,13.85,44.63,1015.64,2030.07,3257.00,2873.99,3291.98,599.70,593.73,55.38,0000 0000 0000 0000 000000
2017-07-17 01:07:38,0.04,0.72,0.00,23.74,27.78,30.70,13.86,44.60,1015.64,2030.00,3256.78,2873.48,3291.37,599.88,593.82,55.43,0000 0000 0000 0000 000000
2017-07-17 01:12:39,0.01,0.73,0.00,23.77,27.81,30.71,13.89,44.62,1015.62,2030.00,3256.06,2873.01,3291.00,600.26,594.09,55.49,0000 0000 0000 0000 000000
2017-07-17 01:17:41,0.01,0.73,0.00,23.79,27.83,30.74,13.80,44.61,1015.62,2030.00,3256.00,2872.91,3290.60,599.87,593.72,55.54,0000 0000 0000 0000 000000
2017-07-17 01:22:42,0.03,0.73,0.00,23.81,27.86,30.76,13.89,44.64,1015.63,2030.00,3255.82,2872.34,3290.05,599.90,593.64,55.59,0000 0000 0000 0000 000000
2017-07-17 01:27:43,0.00,0.73,0.00,23.83,27.88,30.79,13.87,44.79,1015.54,2029.94,3255.19,2872.01,3289.97,599.95,593.74,55.64,0000 0000 0000 0000 000000
2017-07-17 01:32:45,-0.01,0.73,0.00,23.85,27.91,30.81,13.90,44.94,1015.41,2029.74,3255.00,2871.99,3289.67,600.32,593.91,55.69,0000 0000 0000 0000 000000
2017-07-17 01:37:46,-0.04,0.73,0.00,23.87,27.94,30.84,13.86,44.82,1015.38,2029.29,3254.89,2871.81,3289.09,599.92,593.48,55.74,0000 0000 0000 0000 000000
2017-07-17 01:42:47,0.01,0.73,0.00,23.91,27.96,30.86,13.85,44.77,1015.53,2029.08,3254.41,2871.22,3289.00,600.11,593.65,55.79,0000 0000 0000 0000 000000
2017-07-17 01:47:49,0.00,0.73,0.00,23.94,27.99,30.90,13.86,44.74,1015.40,2029.01,3254.04,2871.01,3288.87,599.74,593.24,55.84,0000 0000 0000 0000 000000
2017-07-17 01:52:50,0.01,0.73,0.00,23.96,28.01,30.91,13.84,44.57,1015.35,2029.00,3254.00,2871.00,3288.32,600.03,593.37,55.89,0000 0000 0000 0000 000000
2017-07-17 01:57:51,0.00,0.73,0.00,23.99,28.04,30.95,13.81,44.77,1015.28,2029.00,3254.00,2870.98,3288.02,599.90,593.21,55.94,0000 0000 0000 0000 000000
2017-07-17 02:02:52,0.02,0.73,0.00,24.03,28.06,30.95,13.85,44.78,1015.17,2029.00,3253.50,2870.69,3288.00,599.84,592.89,55.99,0000 0000 0000 0000 000000
2017-07-17 02:07:53,0.02,0.73,0.00,24.06,28.09,30.99,13.80,44.67,1015.17,2028.99,3253.02,2870.06,3287.92,599.62,592.52,56.04,0000 0000 0000 0000 000000
2017-07-17 02:12:54,0.01,0.73,0.00,24.11,28.12,31.01,13.79,44.59,1015.18,2028.99,3252.93,2870.00,3287.50,599.95,592.93,56.09,0000 0000 0000 0000 000000
2017-07-17 02:17:56,0.01,0.73,0.00,24.16,28.14,31.01,13.84,44.50,1015.17,2028.97,3252.30,2869.96,3287.03,600.08,592.87,56.14,0000 0000 0000 0000 000000
2017-07-17 02:22:57,0.01,0.73,0.00,24.20,28.17,31.02,13.85,44.52,1015.18,2028.92,3252.02,2869.54,3286.98,599.86,592.65,56.19,0000 0000 0000 0000 000000
2017-07-17 02:27:59,-0.03,0.73,0.00,24.23,28.19,31.04,13.78,44.64,1015.17,2028.40,3251.99,2869.04,3286.53,599.95,592.67,56.24,0000 0000 0000 0000 000000
2017-07-17 02:33:00,-0.02,0.73,0.00,24.27,28.22,31.06,13.87,44.77,1015.17,2028.09,3251.89,2869.00,3286.03,600.15,592.78,56.29,0000 0000 0000 0000 000000
2017-07-17 02:38:02,0.01,0.73,0.00,24.31,28.25,31.09,13.93,44.79,1015.16,2028.00,3251.30,2868.95,3285.99,600.02,592.43,56.34,0000 0000 0000 0000 000000
2017-07-17 02:43:03,0.02,0.73,0.00,24.35,28.28,31.09,13.77,44.65,1015.16,2028.00,3251.01,2868.52,3285.83,600.03,592.55,56.39,0000 0000 0000 0000 000000
2017-07-17 02:48:04,0.01,0.73,0.00,24.38,28.31,31.11,13.89,44.51,1015.16,2028.00,3251.00,2868.14,3285.23,600.05,592.51,56.44,0000 0000 0000 0000 000000
2017-07-17 02:53:05,0.00,0.73,0.00,24.43,28.34,31.15,13.71,44.46,1015.16,2027.98,3250.98,2868.02,3285.01,599.73,592.05,56.50,0000 0000 0000 0000 000000
2017-07-17 02:58:07,-0.01,0.73,0.00,24.47,28.37,31.17,13.82,44.73,1015.15,2027.84,3250.90,2868.00,3285.00,600.08,592.31,56.55,0000 0000 0000 0000 000000
2017-07-17 03:03:08,-0.04,0.73,0.00,24.50,28.40,31.20,13.84,44.69,1015.15,2027.25,3250.43,2867.97,3284.90,600.03,592.10,56.60,0000 0000 0000 0000 000000
2017-07-17 03:08:10,0.01,0.73,0.00,24.53,28.43,31.18,13.79,44.61,1015.15,2027.07,3250.03,2867.74,3284.33,599.85,592.03,56.65,0000 0000 0000 0000 000000
2017-07-17 03:13:11,0.01,0.73,0.00,24.58,28.46,31.20,13.83,44.65,1015.15,2027.01,3249.99,2867.10,3284.01,600.13,592.22,56.70,0000 0000 0000 0000 000000
2017-07-17 03:18:12,0.00,0.73,0.00,24.62,28.50,31.21,13.75,44.52,1015.14,2027.00,3249.82,2867.00,3283.99,599.90,591.73,56.75,0000 0000 0000 0000 000000
2017-07-17 03:23:14,0.01,0.73,0.00,24.67,28.54,31.23,13.83,44.52,1015.13,2027.00,3249.25,2866.98,3283.75,600.08,591.91,56.80,0000 0000 0000 0000 000000
2017-07-17 03:28:15,0.02,0.73,0.00,24.72,28.57,31.26,13.82,44.54,1015.04,2026.95,3249.01,2866.66,3283.07,600.23,591.81,56.85,0000 0000 0000 0000 000000
2017-07-17 03:33:16,-0.05,0.73,0.00,24.75,28.61,31.29,13.80,44.53,1014.75,2026.43,3248.94,2866.04,3282.99,599.84,591.17,56.90,0000 0000 0000 0000 000000
2017-07-17 03:38:17,0.01,0.73,0.00,24.79,28.64,31.29,13.79,44.57,1014.68,2026.11,3248.42,2866.00,3282.54,600.13,591.46,56.95,0000 0000 0000 0000 000000
2017-07-17 03:43:19,0.01,0.73,0.00,24.83,28.68,31.34,13.76,44.70,1014.66,2026.00,3248.10,2865.77,3282.04,599.86,591.13,57.00,0000 0000 0000 0000 000000
2017-07-17 03:48:20,0.01,0.73,0.00,24.87,28.71,31.37,13.79,44.57,1014.66,2026.00,3247.98,2865.13,3281.99,600.16,591.31,57.05,0000 0000 0000 0000 000000
2017-07-17 03:53:21,0.02,0.73,0.00,24.91,28.75,31.40,13.78,44.53,1014.66,2025.99,3247.69,2865.00,3281.49,600.10,591.24,57.10,0000 0000 0000 0000 000000
2017-07-17 03:58:22,-0.01,0.73,0.00,24.94,28.79,31.44,13.79,44.61,1014.65,2025.82,3247.12,2864.99,3281.03,600.14,591.37,57.15,0000 0000 0000 0000 000000
2017-07-17 04:03:23,-0.05,0.73,0.00,24.99,28.83,31.45,13.75,44.60,1014.64,2025.24,3247.01,2864.77,3280.99,599.97,590.91,57.20,0000 0000 0000 0000 000000
2017-07-17 04:08:24,0.03,0.73,0.00,25.02,28.87,31.50,13.79,44.61,1014.59,2025.04,3246.83,2864.11,3280.56,600.17,591.05,57.25,0000 0000 0000 0000 000000
2017-07-17 04:13:25,0.01,0.73,0.00,25.05,28.91,31.53,13.80,44.50,1014.58,2025.01,3246.28,2864.00,3280.04,600.05,590.80,57.30,0000 0000 0000 0000 000000
2017-07-17 04:18:26,0.00,0.73,0.00,25.09,28.95,31.56,13.84,44.60,1014.50,2025.00,3246.00,2863.87,3279.98,600.62,591.16,57.35,0000 0000 0000 0000 000000
2017-07-17 04:23:28,0.03,0.73,0.00,25.13,28.99,31.61,13.74,44.61,1014.26,2024.99,3245.85,2863.17,3279.38,599.85,590.28,57.40,0000 0000 0000 0000 000000
2017-07-17 04:28:29,-0.01,0.74,0.00,25.18,29.03,31.64,13.75,44.53,1014.20,2024.81,3245.20,2863.01,3279.02,600.14,590.41,57.46,0000 0000 0000 0000 000000
2017-07-17 04:33:31,-0.04,0.73,0.00,25.22,29.07,31.67,13.76,44.57,1014.19,2024.22,3245.01,2862.93,3278.93,600.27,590.54,57.51,0000 0000 0000 0000 000000
2017-07-17 04:38:32,0.02,0.73,0.00,25.26,29.12,31.71,13.76,44.66,1014.18,2024.02,3244.94,2862.34,3278.18,599.91,589.92,57.56,0000 0000 0000 0000 000000
2017-07-17 04:43:33,0.01,0.73,0.00,25.31,29.16,31.74,13.82,44.54,1014.18,2024.00,3244.18,2862.00,3277.97,600.32,590.33,57.61,0000 0000 0000 0000 000000
2017-07-17 04:48:35,0.02,0.74,0.00,25.36,29.20,31.79,13.70,44.58,1014.18,2023.98,3243.99,2861.78,3277.19,600.12,590.03,57.66,0000 0000 0000 0000 000000
2017-07-17 04:53:36,-0.01,0.74,0.00,25.40,29.24,31.84,13.76,44.64,1014.18,2023.75,3243.73,2861.14,3277.00,600.13,589.97,57.71,0000 0000 0000 0000 000000
2017-07-17 04:58:37,-0.02,0.74,0.00,25.42,29.28,31.86,13.80,44.48,1014.18,2023.21,3243.02,2861.00,3276.60,600.08,589.84,57.76,0000 0000 0000 0000 000000
2017-07-17 05:03:38,0.02,0.73,0.00,25.45,29.33,31.93,13.66,44.63,1014.13,2023.01,3242.80,2860.57,3276.01,600.01,589.67,57.81,0000 0000 0000 0000 000000
2017-07-17 05:08:40,0.02,0.74,0.00,25.48,29.36,31.97,13.74,44.58,1013.86,2023.00,3242.04,2860.01,3275.78,600.17,589.69,57.86,0000 0000 0000 0000 000000
2017-07-17 05:13:41,0.03,0.74,0.00,25.51,29.41,32.01,13.70,44.64,1013.82,2023.00,3241.44,2859.69,3275.06,600.10,589.51,57.91,0000 0000 0000 0000 000000
2017-07-17 05:18:42,0.01,0.74,0.00,25.54,29.44,32.05,13.73,44.55,1013.86,2022.98,3241.01,2859.07,3274.87,599.66,589.03,57.96,0000 0000 0000 0000 000000
2017-07-17 05:23:43,-0.01,0.74,0.00,25.58,29.48,32.08,13.80,44.65,1013.82,2022.80,3240.99,2859.00,3274.12,600.29,589.67,58.01,0000 0000 0000 0000 000000
2017-07-17 05:28:44,-0.02,0.74,0.00,25.59,29.51,32.12,13.77,44.59,1013.80,2022.25,3240.36,2858.75,3273.98,599.90,589.26,58.06,0000 0000 0000 0000 000000
2017-07-17 05:33:46,0.02,0.74,0.00,25.58,29.55,32.20,13.80,44.63,1013.90,2022.04,3239.98,2858.06,3273.35,600.15,589.52,58.11,0000 0000 0000 0000 000000
2017-07-17 05:38:47,0.01,0.74,0.00,25.57,29.58,32.31,13.79,44.65,1014.05,2022.00,3239.37,2857.99,3273.00,599.86,589.22,58.16,0000 0000 0000 0000 000000
2017-07-17 05:43:48,0.04,0.74,0.00,25.59,29.61,32.43,13.80,44.67,1014.16,2022.00,3238.88,2857.27,3272.42,600.03,589.44,58.21,0000 0000 0000 0000 000000
2017-07-17 05:48:49,0.01,0.74,0.00,25.62,29.64,32.52,13.82,44.83,1014.16,2021.98,3238.09,2856.99,3271.96,600.24,589.63,58.26,0000 0000 0000 0000 000000
2017-07-17 05:53:50,0.04,0.74,0.00,25.63,29.67,32.57,13.74,44.67,1014.12,2021.98,3237.63,2856.38,3271.24,599.88,589.23,58.31,0000 0000 0000 0000 000000
2017-07-17 05:58:51,-0.01,0.74,0.00,25.63,29.70,32.60,13.69,44.49,1014.16,2021.76,3237.02,2856.00,3270.89,599.71,589.13,58.36,0000 0000 0000 0000 000000
2017-07-17 06:03:53,0.04,0.75,0.00,25.62,29.72,32.60,13.76,44.77,1014.17,2021.60,3236.36,2855.67,3270.17,600.19,589.64,58.42,0000 0000 0000 0000 000000
2017-07-17 06:08:54,-0.02,0.75,0.00,25.62,29.74,32.61,13.68,44.73,1014.17,2021.29,3235.90,2855.03,3269.91,599.73,589.04,58.47,0000 0000 0000 0000 000000
2017-07-17 06:13:55,0.03,0.75,0.00,25.62,29.76,32.64,13.87,44.72,1014.17,2021.02,3235.11,2854.62,3269.10,600.49,589.86,58.52,0000 0000 0000 0000 000000
2017-07-17 06:18:57,0.01,0.75,0.00,25.64,29.77,32.65,13.80,44.80,1014.17,2021.00,3234.83,2854.03,3268.89,600.32,589.64,58.57,0000 0000 0000 0000 000000
2017-07-17 06:23:58,0.02,0.75,0.00,25.66,29.78,32.65,13.73,44.56,1014.17,2021.00,3234.09,2853.96,3268.16,600.03,589.30,58.62,0000 0000 0000 0000 000000
2017-07-17 06:28:59,0.03,0.75,0.00,25.67,29.80,32.64,13.71,44.53,1014.18,2021.00,3233.72,2853.31,3267.95,599.69,588.99,58.67,0000 0000 0000 0000 000000
2017-07-17 06:34:01,0.02,0.75,0.00,25.67,29.81,32.66,13.74,44.62,1014.18,2021.00,3233.04,2852.99,3267.17,599.99,589.30,58.72,0000 0000 0000 0000 000000
2017-07-17 06:39:02,0.04,0.75,0.00,25.66,29.82,32.66,13.92,44.97,1014.19,2020.98,3232.42,2852.49,3266.91,600.66,590.10,58.77,0000 0000 0000 0000 000000
2017-07-17 06:44:03,0.02,0.75,0.00,25.65,29.82,32.69,13.76,45.50,1014.21,2020.95,3231.94,2852.01,3266.16,600.06,589.31,58.82,0000 0000 0000 0000 000000
2017-07-17 06:49:05,0.02,0.76,0.00,25.64,29.84,32.68,13.91,45.63,1014.23,2020.90,3231.15,2851.72,3265.96,600.65,590.02,58.87,0000 0000 0000 0000 000000
2017-07-17 06:54:06,0.07,0.76,0.00,25.64,29.85,32.67,13.75,45.19,1014.25,2020.79,3230.37,2850.52,3264.67,599.59,589.00,58.92,0000 0000 0000 0000 000000
2017-07-17 06:59:07,-0.01,0.76,0.00,25.65,29.85,32.66,13.73,45.05,1014.41,2020.52,3229.45,2850.00,3263.97,599.74,589.19,58.97,0000 0000 0000 0000 000000
2017-07-17 07:04:08,0.01,0.76,0.00,25.67,29.85,32.65,13.81,44.96,1014.58,2020.33,3229.00,2849.80,3263.43,600.55,590.13,59.02,0000 0000 0000 0000 000000
2017-07-17 07:09:09,0.04,0.76,0.00,25.71,29.85,32.66,13.82,45.31,1014.59,2020.36,3228.61,2849.12,3263.02,600.51,589.97,59.07,0000 0000 0000 0000 000000
2017-07-17 07:14:10,-0.01,0.76,0.00,25.71,29.87,32.67,13.78,44.85,1014.65,2020.27,3228.04,2849.00,3263.00,600.29,589.82,59.12,0000 0000 0000 0000 000000
2017-07-17 07:19:12,0.02,0.76,0.00,25.71,29.87,32.68,13.67,44.81,1014.66,2020.43,3227.99,2849.00,3262.96,599.76,589.23,59.17,0000 0000 0000 0000 000000
2017-07-17 07:24:13,0.02,0.76,0.00,25.72,29.87,32.69,13.74,44.42,1014.66,2020.40,3227.60,2848.85,3262.44,599.80,589.35,59.22,0000 0000 0000 0000 000000
2017-07-17 07:29:14,0.07,0.77,0.00,25.70,29.87,32.72,13.69,44.52,1014.66,2020.77,3226.97,2848.32,3262.03,599.47,588.95,59.27,0000 0000 0000 0000 000000
2017-07-17 07:34:15,0.09,0.77,0.00,25.70,29.87,32.72,13.82,44.85,1014.66,2020.91,3225.48,2847.35,3261.10,600.36,589.89,59.32,0000 0000 0000 0000 000000
2017-07-17 07:39:16,0.22,0.78,0.00,25.70,29.87,32.71,13.74,44.44,1014.66,2020.91,3221.79,2844.69,3258.23,599.97,589.59,59.37,0000 0000 0000 0000 000000
2017-07-17 07:44:18,0.22,0.79,0.00,25.70,29.87,32.67,13.77,44.27,1014.68,2020.98,3217.35,2841.50,3254.65,600.13,589.61,59.42,0000 0000 0000 0000 000000
2017-07-17 07:49:19,0.15,0.80,0.00,25.68,29.87,32.63,13.68,44.15,1014.72,2020.99,3214.09,2838.96,3251.70,599.81,589.32,59.48,0000 0000 0000 0000 000000
2017-07-17 07:54:21,0.10,0.81,0.00,25.66,29.87,32.67,13.75,44.15,1014.99,2020.99,3211.99,2837.36,3250.04,599.98,589.82,59.53,0000 0000 0000 0000 000000
2017-07-17 07:59:22,0.06,0.68,0.00,25.57,29.87,32.74,12.12,39.07,1015.14,2021.20,3269.34,2876.06,3296.45,531.71,522.84,0.00,0000 0000 0000 0000 000002
2017-07-17 08:04:23,0.03,0.00,0.00,25.49,29.86,32.75,13.76,44.48,1015.15,2022.02,3554.60,3073.37,3533.90,599.67,589.84,0.02,0000 0000 0000 0000 000000
2017-07-17 08:09:24,0.03,0.00,0.00,25.46,29.84,32.69,13.79,44.33,1015.15,2022.04,3552.13,3072.71,3532.92,599.99,590.30,0.07,0000 0000 0000 0000 000000
2017-07-17 08:14:25,0.03,0.00,0.00,25.43,29.82,32.64,13.78,44.08,1015.15,2022.16,3551.23,3072.13,3532.09,599.98,590.32,0.12,0000 0000 0000 0000 000000
2017-07-17 08:19:26,0.03,0.00,0.00,25.40,29.79,32.60,13.80,44.08,1015.15,2022.54,3550.98,3072.04,3531.94,599.81,590.25,0.17,0000 0000 0000 0000 000000
2017-07-17 08:24:28,0.04,0.00,0.00,25.37,29.77,32.53,13.83,44.13,1015.16,2022.82,3550.55,3072.01,3531.46,599.77,590.23,0.22,0000 0000 0000 0000 000000
2017-07-17 08:29:29,0.03,0.01,0.00,25.35,29.74,32.47,13.75,44.08,1015.16,2022.96,3550.14,3072.01,3531.11,599.64,590.11,0.27,0000 0000 0000 0000 000000
2017-07-17 08:34:31,0.02,0.01,0.00,25.33,29.71,32.41,13.81,44.10,1015.17,2022.98,3549.74,3071.95,3530.53,600.27,590.80,0.32,0000 0000 0000 0000 000000
2017-07-17 08:39:32,0.01,0.01,0.00,25.32,29.68,32.37,13.81,44.06,1015.18,2022.99,3549.09,3071.90,3530.06,600.16,590.78,0.37,0000 0000 0000 0000 000000
2017-07-17 08:44:34,0.00,0.01,0.00,25.31,29.65,32.33,13.80,44.02,1015.17,2022.99,3549.02,3071.94,3530.05,599.78,590.44,0.42,0000 0000 0000 0000 000000
2017-07-17 08:49:35,0.00,0.01,0.00,25.30,29.62,32.27,13.74,43.92,1015.17,2023.00,3549.00,3071.93,3530.01,599.79,590.50,0.47,0000 0000 0000 0000 000000
2017-07-17 08:54:36,0.00,0.01,0.00,25.30,29.59,32.22,13.73,44.03,1015.20,2023.07,3548.98,3071.96,3530.00,600.09,590.72,0.52,0000 0000 0000 0000 000000
2017-07-17 08:59:37,0.02,0.01,0.00,25.30,29.56,32.14,13.77,43.94,1015.23,2023.24,3548.88,3071.91,3529.98,600.18,590.80,0.57,0000 0000 0000 0000 000000
2017-07-17 09:04:39,0.04,0.01,0.00,25.30,29.53,32.05,13.73,43.95,1015.34,2023.62,3548.76,3071.91,3529.97,599.68,590.37,0.62,0000 0000 0000 0000 000000
2017-07-17 09:09:40,0.06,0.01,0.00,25.30,29.51,31.99,13.74,43.84,1015.61,2023.95,3548.16,3071.41,3529.38,599.94,590.85,0.67,0000 0000 0000 0000 000000
2017-07-17 09:14:41,0.00,0.01,0.00,25.30,29.48,31.95,13.82,43.87,1015.62,2023.99,3548.00,3071.12,3529.02,600.24,591.13,0.72,0000 0000 0000 0000 000000
2017-07-17 09:19:42,-0.00,0.01,0.00,25.30,29.45,31.91,13.74,44.08,1015.64,2023.99,3547.98,3071.12,3529.00,599.89,590.67,0.77,0000 0000 0000 0000 000000
2017-07-17 09:24:44,-0.00,0.01,0.00,25.29,29.43,31.88,13.74,44.04,1015.64,2023.99,3547.97,3071.26,3529.00,600.11,591.01,0.82,0000 0000 0000 0000 000000
2017-07-17 09:29:45,-0.01,0.01,0.00,25.29,29.40,31.86,13.75,43.87,1015.65,2023.99,3547.98,3071.61,3529.01,599.86,590.68,0.87,0000 0000 0000 0000 000000
2017-07-17 09:34:46,0.42,0.02,0.00,25.30,29.38,31.82,13.76,43.83,1015.64,2024.00,3542.70,3067.84,3524.87,600.02,590.87,0.92,0000 0000 0000 0000 000000
2017-07-17 09:39:47,0.28,0.05,0.00,25.29,29.36,31.81,13.75,43.95,1015.68,2024.00,3534.93,3061.12,3517.32,599.79,590.68,0.97,0000 0000 0000 0000 000000
2017-07-17 09:44:49,0.01,0.05,0.00,25.30,29.35,31.78,13.72,43.92,1015.76,2024.00,3533.92,3060.00,3516.01,599.97,591.16,1.02,0000 0000 0000 0000 000000
2017-07-17 09:49:50,0.00,0.05,0.00,25.30,29.32,31.77,13.80,43.92,1015.70,2024.01,3533.91,3060.00,3515.99,600.22,591.11,1.07,0000 0000 0000 0000 000000
2017-07-17 09:54:52,0.00,0.05,0.00,25.30,29.31,31.75,13.71,43.97,1015.67,2024.01,3533.94,3060.01,3515.98,599.77,590.59,1.12,0000 0000 0000 0000 000000
2017-07-17 09:59:53,-0.00,0.05,0.00,25.30,29.30,31.74,13.76,43.94,1015.88,2024.02,3533.96,3060.01,3515.99,599.84,590.94,1.17,0000 0000 0000 0000 000000
2017-07-17 10:04:55,0.00,0.05,0.00,25.30,29.28,31.73,13.83,43.86,1016.10,2024.05,3533.97,3060.05,3515.99,600.14,591.28,1.22,0000 0000 0000 0000 000000
2017-07-17 10:09:57,0.00,0.05,0.00,25.32,29.27,31.71,13.78,44.01,1016.09,2024.09,3533.98,3060.08,3515.99,600.15,591.25,1.27,0000 0000 0000 0000 000000
2017-07-17 10:14:58,0.00,0.05,0.00,25.32,29.26,31.70,13.85,43.93,1016.00,2024.15,3533.98,3060.18,3515.99,599.89,590.88,1.32,0000 0000 0000 0000 000000
2017-07-17 10:19:59,0.01,0.05,0.00,25.32,29.25,31.68,13.69,43.84,1016.01,2024.29,3533.99,3060.59,3515.99,599.66,590.67,1.37,0000 0000 0000 0000 000000
2017-07-17 10:25:01,0.02,0.05,0.00,25.32,29.25,31.68,13.77,43.85,1016.11,2024.55,3533.99,3060.85,3515.99,599.95,591.12,1.42,0000 0000 0000 0000 000000
2017-07-17 10:30:02,0.01,0.05,0.00,25.32,29.23,31.67,13.77,43.76,1016.13,2024.68,3533.99,3060.92,3515.99,599.76,590.81,1.47,0000 0000 0000 0000 000000
2017-07-17 10:35:03,-0.00,0.05,0.00,25.34,29.22,31.66,13.75,43.82,1016.13,2024.67,3533.99,3060.92,3515.99,599.97,591.09,1.52,0000 0000 0000 0000 000000
2017-07-17 10:40:04,0.01,0.05,0.00,25.40,29.22,31.62,13.72,43.79,1016.13,2024.85,3533.99,3060.96,3515.99,599.95,590.93,1.57,0000 0000 0000 0000 000000
2017-07-17 10:45:06,0.00,0.05,0.00,25.43,29.22,31.59,13.69,43.73,1016.13,2024.87,3533.99,3060.95,3515.99,599.85,590.63,1.63,0000 0000 0000 0000 000000
2017-07-17 10:50:07,-0.00,0.05,0.00,25.48,29.22,31.58,13.72,43.74,1016.13,2024.79,3533.98,3060.87,3515.99,600.20,590.96,1.68,0000 0000 0000 0000 000000
2017-07-17 10:55:08,0.01,0.05,0.00,25.46,29.22,31.59,13.71,43.72,1016.13,2024.93,3533.99,3060.94,3515.99,599.48,590.28,1.73,0000 0000 0000 0000 000000
2017-07-17 11:00:09,-0.00,0.05,0.00,25.45,29.22,31.62,13.67,43.82,1016.13,2024.93,3533.99,3060.95,3515.99,599.76,590.56,1.78,0000 0000 0000 0000 000000
2017-07-17 11:05:11,-0.01,0.05,0.00,25.43,29.22,31.64,13.76,43.74,1016.13,2024.85,3533.98,3060.93,3515.99,600.05,590.90,1.83,0000 0000 0000 0000 000000
2017-07-17 11:10:12,0.00,0.05,0.00,25.40,29.22,31.66,13.78,43.87,1016.13,2024.88,3533.96,3060.84,3515.99,599.92,590.90,1.88,0000 0000 0000 0000 000000
2017-07-17 11:15:13,0.01,0.05,0.00,25.38,29.22,31.67,13.77,43.92,1016.13,2024.92,3533.72,3060.68,3515.98,600.03,590.95,1.93,0000 0000 0000 0000 000000
2017-07-17 11:20:14,0.00,0.05,0.00,25.36,29.22,31.69,13.68,43.86,1016.12,2024.91,3533.78,3060.72,3515.98,600.08,591.19,1.98,0000 0000 0000 0000 000000
2017-07-17 11:25:16,-0.00,0.05,0.00,25.34,29.22,31.70,13.78,43.81,1016.11,2024.91,3533.71,3060.66,3515.97,600.16,591.22,2.03,0000 0000 0000 0000 000000
2017-07-17 11:30:17,-0.00,0.05,0.00,25.32,29.22,31.70,13.78,43.97,1016.10,2024.93,3533.66,3060.68,3515.95,600.29,591.35,2.08,0000 0000 0000 0000 000000
2017-07-17 11:35:18,-0.00,0.05,0.00,25.31,29.21,31.69,13.74,43.87,1016.08,2024.97,3533.71,3060.82,3515.95,600.21,591.24,2.13,0000 0000 0000 0000 000000
2017-07-17 11:40:20,0.27,0.06,0.00,25.29,29.20,31.69,13.86,43.90,1015.99,2024.98,3531.21,3057.98,3512.71,599.93,591.02,2.18,0000 0000 0000 0000 000000
2017-07-17 11:45:21,0.04,0.07,0.00,25.28,29.20,31.69,13.72,43.95,1015.81,2024.93,3529.01,3055.17,3509.76,599.92,591.02,2.23,0000 0000 0000 0000 000000
2017-07-17 11:50:22,-0.01,0.07,0.00,25.27,29.20,31.70,13.78,43.98,1015.72,2024.83,3528.98,3055.07,3509.56,599.93,590.86,2.28,0000 0000 0000 0000 000000
2017-07-17 11:55:23,0.00,0.07,0.00,25.25,29.20,31.69,13.77,43.85,1015.68,2024.83,3528.97,3055.07,3509.39,600.45,591.51,2.33,0000 0000 0000 0000 000000
2017-07-17 12:00:25,0.00,0.07,0.00,25.24,29.20,31.68,13.78,43.81,1015.66,2024.86,3528.97,3055.09,3509.30,600.26,591.20,2.38,0000 0000 0000 0000 000000
2017-07-17 12:05:26,-0.00,0.07,0.00,25.24,29.18,31.68,13.80,43.76,1015.67,2024.92,3528.98,3055.15,3509.38,599.98,591.02,2.43,0000 0000 0000 0000 000000
2017-07-17 12:10:27,-0.01,0.07,0.00,25.22,29.17,31.67,13.75,43.92,1015.68,2024.93,3528.98,3055.31,3509.53,599.85,590.86,2.48,0000 0000 0000 0000 000000
2017-07-17 12:15:28,0.00,0.07,0.00,25.21,29.17,31.66,13.75,43.91,1015.66,2024.92,3528.99,3055.36,3509.50,599.82,590.96,2.53,0000 0000 0000 0000 000000
2017-07-17 12:20:30,-0.00,0.07,0.00,25.20,29.17,31.66,13.77,43.94,1015.65,2024.94,3528.97,3055.47,3509.48,600.13,591.18,2.58,0000 0000 0000 0000 000000
2017-07-17 12:25:31,-0.00,0.07,0.00,25.18,29.17,31.65,13.77,43.92,1015.64,2024.96,3528.98,3055.47,3509.47,600.02,591.05,2.63,0000 0000 0000 0000 000000
2017-07-17 12:30:32,0.00,0.07,0.00,25.16,29.15,31.65,13.76,43.95,1015.65,2024.96,3528.98,3055.59,3509.46,599.99,591.04,2.68,0000 0000 0000 0000 000000
2017-07-17 12:35:33,0.01,0.07,0.00,25.17,29.15,31.64,13.77,43.96,1015.64,2024.96,3528.97,3055.44,3509.30,600.10,591.30,2.73,0000 0000 0000 0000 000000
2017-07-17 12:40:34,0.00,0.07,0.00,25.16,29.15,31.62,13.76,43.92,1015.64,2024.94,3528.93,3055.43,3509.30,600.00,591.16,2.78,0000 0000 0000 0000 000000
2017-07-17 12:45:36,-0.01,0.07,0.00,25.14,29.15,31.63,13.75,43.93,1015.64,2024.98,3528.95,3055.59,3509.45,600.03,591.25,2.83,0000 0000 0000 0000 000000
2017-07-17 12:50:37,-0.00,0.07,0.00,25.12,29.13,31.62,13.82,43.94,1015.64,2024.98,3528.96,3055.77,3509.42,600.20,591.49,2.88,0000 0000 0000 0000 000000
2017-07-17 12:55:38,-0.01,0.07,0.00,25.12,29.12,31.62,13.77,43.90,1015.64,2024.97,3528.97,3055.83,3509.48,599.75,591.02,2.93,0000 0000 0000 0000 000000